Altoona, PA

7:01 AM EDT on August 24, 2019 (GMT -0400)
Altoona-Blair County

Weather History for KAOO - May, 2019

Change the Weather History Date:

Friday, May 3, 2019

  Actual Average Record
Temperature  
Mean Temperature 70 °F 54 °F  
Max Temperature 80 °F 66 °F 90 °F (2018)
Min Temperature 59 °F 43 °F 32 °F (1981)
Degree Days  
Heating Degree Days 0 11  
Month to date heating degree days 8 33  
Since 1 July heating degree days 5562 5951  
Cooling Degree Days 5 0  
Month to date cooling degree days 8 0  
Year to date cooling degree days 8 6  
Growing Degree Days 20 (Base 50)    
Moisture  
Dew Point 58 °F    
Average Humidity 71    
Maximum Humidity 93    
Minimum Humidity 48    
Precipitation  
Precipitation 0.50 in 0.11 in 0.74 in (1958)
Month to date precipitation 0.50 0.33  
Year to date precipitation 13.31 10.80  
Sea Level Pressure  
Sea Level Pressure 29.97 in    
Wind  
Wind Speed 3 mph (WSW)    
Max Wind Speed 37 mph    
Max Gust Speed 42 mph    
Visibility 9 miles    
Events Rain , Thunderstorm    
T = Trace of Precipitation, MM = Missing Value Source: NWS Daily Summary

Daily Weather History Graph

Daily Weather History Graph

Search for Another Location

Airport or City:

Astronomy

May. 03, 2019 Rise Set
Actual Time 6:10 AM EDT 8:10 PM EDT
Civil Twilight 5:40 AM EDT 8:40 PM EDT
Nautical Twilight 5:04 AM EDT 9:16 PM EDT
Astronomical Twilight 4:25 AM EDT 9:55 PM EDT
Moon 5:51 AM EDT (5/3) 6:55 PM EDT (5/3)
Length of Visible Light 14h 59m
Length of Day
13h 59m
Waning Crescent, 2% of the Moon is Illuminated
May 3
Waning Crescent
May 4
New
May 11
First Quarter
May 18
Full
May 26
Last Quarter

Hourly Weather History & Observations

Time (EDT) Temp. Heat Index Dew Point Humidity Pressure Visibility Wind Dir Wind Speed Gust Speed Precip Events Conditions
12:53 AM 62.1 °F - 54.0 °F 75% 30.06 in 10.0 mi West 3.5 mph - N/A   Partly Cloudy
1:53 AM 60.1 °F - 54.0 °F 80% 30.03 in 10.0 mi Calm Calm - N/A   Partly Cloudy
2:53 AM 60.1 °F - 55.0 °F 83% 30.02 in 10.0 mi SSE 5.8 mph - N/A   Overcast
3:53 AM 62.1 °F - 55.0 °F 78% 30.00 in 10.0 mi Calm Calm - N/A   Clear
4:53 AM 60.1 °F - 55.0 °F 83% 30.00 in 10.0 mi West 5.8 mph - N/A   Mostly Cloudy
5:53 AM 60.1 °F - 55.9 °F 86% 30.00 in 10.0 mi SSW 3.5 mph - 0.00 in   Overcast
6:53 AM 62.1 °F - 55.9 °F 80% 30.01 in 10.0 mi Calm Calm - N/A   Overcast
7:53 AM 63.0 °F - 59.0 °F 87% 30.02 in 10.0 mi Calm Calm - 0.00 in   Overcast
8:53 AM 66.9 °F - 61.0 °F 81% 30.02 in 10.0 mi Calm Calm - 0.00 in   Partly Cloudy
9:53 AM 72.0 °F - 57.0 °F 59% 30.03 in 10.0 mi Variable 3.5 mph - N/A   Clear
10:53 AM 72.0 °F - 57.9 °F 61% 30.02 in 10.0 mi NW 3.5 mph - N/A   Mostly Cloudy
11:53 AM 73.9 °F - 59.0 °F 59% 30.01 in 10.0 mi WNW 9.2 mph - N/A   Clear
12:53 PM 75.0 °F - 59.0 °F 57% 29.99 in 10.0 mi Variable 3.5 mph - N/A   Mostly Cloudy
1:53 PM 75.0 °F - 59.0 °F 57% 29.97 in 10.0 mi Calm Calm - N/A   Mostly Cloudy
2:53 PM 78.1 °F - 57.0 °F 48% 29.95 in 10.0 mi Calm Calm - N/A   Mostly Cloudy
3:53 PM 80.1 °F 80.7 °F 59.0 °F 48% 29.91 in 10.0 mi NNW 4.6 mph - N/A   Partly Cloudy
4:53 PM 77.0 °F - 59.0 °F 54% 29.88 in 10.0 mi NNE 6.9 mph - N/A   Scattered Clouds
5:53 PM 75.9 °F - 59.0 °F 56% 29.89 in 10.0 mi Calm Calm - N/A   Mostly Cloudy
6:08 PM 77.0 °F - 59.0 °F 54% 29.92 in 10.0 mi Calm Calm - N/A Thunderstorm Mostly Cloudy
6:26 PM 62.1 °F - 57.9 °F 86% 29.95 in 9.0 mi SSW 34.5 mph 42.6 mph 0.00 in Rain , Thunderstorm Light Thunderstorms and Rain
6:32 PM 62.1 °F - 57.9 °F 86% 29.96 in 1.8 mi South 24.2 mph 42.6 mph 0.08 in Rain , Thunderstorm Thunderstorms and Rain
6:46 PM 63.0 °F - 59.0 °F 87% 29.95 in 3.0 mi South 11.5 mph - 0.21 in Rain , Thunderstorm Light Thunderstorms and Rain
6:53 PM 64.0 °F - 59.0 °F 84% 29.93 in 10.0 mi South 11.5 mph - 0.21 in Rain , Thunderstorm Light Rain
7:06 PM 64.0 °F - 59.0 °F 84% 29.94 in 10.0 mi South 10.4 mph - 0.00 in   Scattered Clouds
7:53 PM 63.0 °F - 60.1 °F 90% 29.93 in 10.0 mi West 5.8 mph - 0.00 in Rain Light Rain
8:06 PM 64.0 °F - 60.1 °F 87% 29.96 in 10.0 mi SW 9.2 mph - 0.00 in Rain , Thunderstorm Light Rain
8:23 PM 63.0 °F - 61.0 °F 93% 29.95 in 1.0 mi North 3.5 mph 24.2 mph 0.20 in Rain , Thunderstorm Heavy Rain
8:31 PM 63.0 °F - 61.0 °F 93% 29.95 in 2.5 mi Calm Calm - 0.21 in Rain Rain
8:38 PM 63.0 °F - 60.1 °F 90% 29.94 in 7.0 mi ESE 6.9 mph - 0.22 in Rain Light Rain
9:53 PM 62.1 °F - 60.1 °F 93% 29.94 in 10.0 mi WNW 4.6 mph - N/A   Overcast
10:53 PM 62.1 °F - 61.0 °F 96% 29.94 in 10.0 mi Calm Calm - N/A   Overcast
11:53 PM 63.0 °F - 61.0 °F 93% 29.92 in 10.0 mi Calm Calm - 0.00 in   Overcast